Le nostre stazioni meteo in Italia

Pubblicità
Il mio iltempo24.it
Ferrara, Italia (16133): Temperatura & dewpoint: 15.08.2019 14:00:00 - 21.08.2019 14:00:00 (CEST)Ferrara, Italia (16133): velocità del vento: 15.08.2019 14:00:00 - 21.08.2019 14:00:00 (CEST)Ferrara, Italia (16133): direzione del vento: 15.08.2019 14:00:00 - 21.08.2019 14:00:00 (CEST)Ferrara, Italia (16133): reduced air pressure: 15.08.2019 14:00:00 - 21.08.2019 14:00:00 (CEST)Ferrara, Italia (16133): precipitazioni: 15.08.2019 14:00:00 - 21.08.2019 14:00:00 (CEST)
Data & Tempo tt [°C] td [°C] ff [km/h] ff [kn] dd ppp [hPa] rr [mm]
21.08.2019 14:00:00 - - - - - - -
21.08.2019 13:00:00 - - - - - - -
21.08.2019 12:00:00 - - - - - - -
21.08.2019 11:00:00 - - - - - - -
21.08.2019 10:00:00 - - - - - - -
21.08.2019 09:00:00 - - - - - - -
21.08.2019 08:00:00 - - - - - - -
21.08.2019 07:00:00 - - - - - - -
21.08.2019 06:00:00 23,4 22,6 1 1 ENE 1016,7 0,0
21.08.2019 05:00:00 23,3 22,5 5 3 N 1016,3 0,0
21.08.2019 04:00:00 23,0 22,2 5 3 NNE 1016,2 0,0
21.08.2019 03:00:00 23,5 22,3 7 4 NE 1015,7 0,0
21.08.2019 02:00:00 23,9 22,3 7 4 ENE 1015,8 0,0
21.08.2019 01:00:00 24,3 22,4 9 5 ENE 1015,7 0,0
21.08.2019 00:00:00 24,9 22,4 8 4 NE 1016,1 0,0
20.08.2019 23:00:00 - - - - - - -
20.08.2019 22:00:00 - - - - - - -
20.08.2019 21:00:00 - - - - - - -
20.08.2019 20:00:00 - - - - - - -
20.08.2019 19:00:00 - - - - - - -
20.08.2019 18:00:00 - - - - - - -
20.08.2019 17:00:00 31,9 19,2 14 7 ENE 1015,6 0,0
20.08.2019 16:00:00 32,2 18,4 11 6 NE 1015,8 0,0
20.08.2019 15:00:00 32,2 17,7 8 5 E 1016,1 0,0
20.08.2019 14:00:00 31,5 17,8 9 5 ENE 1016,6 0,0
20.08.2019 13:00:00 31,1 17,0 10 5 ENE 1016,8 0,0
20.08.2019 12:00:00 30,1 17,5 9 5 ENE 1017,4 0,0
20.08.2019 11:00:00 29,2 19,2 12 7 ENE 1017,5 0,0
20.08.2019 10:00:00 27,5 21,5 10 6 ENE 1017,2 0,0
20.08.2019 09:00:00 26,6 22,7 7 4 ENE 1017,1 0,0
20.08.2019 08:00:00 24,7 22,4 6 3 ENE 1016,9 0,0
20.08.2019 07:00:00 23,2 22,0 6 3 ENE 1016,6 0,0
20.08.2019 06:00:00 22,7 21,5 9 5 NE 1016,5 0,0
20.08.2019 05:00:00 22,6 20,9 9 5 ENE 1016,3 0,0
20.08.2019 04:00:00 23,4 20,5 8 4 ENE 1016,4 0,0
20.08.2019 03:00:00 23,1 20,6 7 4 NE 1016,6 0,0
20.08.2019 02:00:00 23,7 20,2 8 4 NE 1016,2 0,0
20.08.2019 01:00:00 24,0 19,7 5 3 ENE 1016,5 0,0
20.08.2019 00:00:00 25,0 19,6 6 3 ENE 1016,5 0,0
19.08.2019 23:00:00 - - - - - - -
19.08.2019 22:00:00 - - - - - - -
19.08.2019 21:00:00 - - - - - - -
19.08.2019 20:00:00 - - - - - - -
19.08.2019 19:00:00 - - - - - - -
19.08.2019 18:00:00 - - - - - - -
19.08.2019 17:00:00 32,2 15,7 14 8 ENE 1014,9 0,0
19.08.2019 16:00:00 32,7 12,9 9 5 ENE 1015,2 0,0
19.08.2019 15:00:00 31,6 14,3 9 5 NE 1015,7 0,0
19.08.2019 14:00:00 31,3 16,5 7 4 NNE 1015,6 0,0
19.08.2019 13:00:00 30,8 17,1 7 4 NNE 1015,8 0,0
19.08.2019 12:00:00 29,5 18,3 5 3 N 1016,0 0,0
19.08.2019 11:00:00 28,2 20,2 7 4 E 1016,0 0,0
19.08.2019 10:00:00 26,9 21,6 8 5 ENE 1015,7 0,0
19.08.2019 09:00:00 25,8 21,7 3 1 NE 1015,6 0,0
19.08.2019 08:00:00 23,7 21,2 4 2 ENE 1015,5 0,0
19.08.2019 07:00:00 22,3 20,8 5 3 ENE 1015,1 0,0
19.08.2019 06:00:00 21,6 20,1 5 3 NNE 1015,0 0,0
19.08.2019 05:00:00 21,9 20,5 6 3 NE 1014,8 0,0
19.08.2019 04:00:00 21,9 20,4 8 4 NE 1014,9 0,0
19.08.2019 03:00:00 22,3 20,6 8 4 NNE 1015,0 0,0
19.08.2019 02:00:00 22,9 20,8 6 3 NNE 1015,0 0,0
19.08.2019 01:00:00 24,0 20,5 3 2 NE 1015,2 0,0
19.08.2019 00:00:00 24,4 20,5 3 2 E 1015,3 0,0
18.08.2019 23:00:00 - - - - - - -
18.08.2019 22:00:00 - - - - - - -
18.08.2019 21:00:00 - - - - - - -
18.08.2019 20:00:00 - - - - - - -
18.08.2019 19:00:00 - - - - - - -
18.08.2019 18:00:00 - - - - - - -
18.08.2019 17:00:00 30,6 16,2 15 8 ENE 1014,2 0,0
18.08.2019 16:00:00 30,9 14,5 12 6 ENE 1014,4 0,0
18.08.2019 15:00:00 30,7 14,8 9 5 ENE 1014,7 0,0
18.08.2019 14:00:00 30,9 15,3 9 5 ENE 1015,0 0,0
18.08.2019 13:00:00 30,1 15,0 6 4 NE 1015,2 0,0
18.08.2019 12:00:00 29,4 16,6 9 5 ENE 1015,6 0,0
18.08.2019 11:00:00 27,8 17,0 7 4 ENE 1015,7 0,0
18.08.2019 10:00:00 26,1 18,5 6 3 NE 1015,8 0,0
18.08.2019 09:00:00 24,0 18,0 6 4 ENE 1015,8 0,0
18.08.2019 08:00:00 22,4 17,5 5 3 ENE 1015,6 0,0
18.08.2019 07:00:00 21,2 17,6 3 2 NE 1015,4 0,0
18.08.2019 06:00:00 20,2 17,4 3 2 ENE 1015,3 0,0
18.08.2019 05:00:00 20,8 17,4 4 2 ENE 1015,0 0,0
18.08.2019 04:00:00 21,2 17,4 2 1 N 1015,3 0,0
18.08.2019 03:00:00 22,0 17,4 3 1 ENE 1015,3 0,0
18.08.2019 02:00:00 22,2 17,3 4 2 ENE 1015,5 0,0
18.08.2019 01:00:00 22,8 17,3 - - - 1015,6 0,0
18.08.2019 00:00:00 23,2 17,0 5 3 ENE 1015,5 0,0
17.08.2019 23:00:00 - - - - - - -
17.08.2019 22:00:00 - - - - - - -
17.08.2019 21:00:00 - - - - - - -
17.08.2019 20:00:00 - - - - - - -
17.08.2019 19:00:00 - - - - - - -
17.08.2019 18:00:00 - - - - - - -
17.08.2019 17:00:00 30,3 11,8 8 4 ENE 1015,0 0,0
17.08.2019 16:00:00 30,7 11,1 7 4 ENE 1015,3 0,0
17.08.2019 15:00:00 29,7 11,2 8 4 ENE 1015,5 0,0
17.08.2019 14:00:00 29,1 11,2 5 3 NNE 1016,1 0,0
17.08.2019 13:00:00 28,7 12,2 5 3 N 1016,6 0,0
17.08.2019 12:00:00 27,2 12,8 7 4 ENE 1016,9 0,0
17.08.2019 11:00:00 26,0 14,5 5 3 NNE 1017,3 0,0
17.08.2019 10:00:00 25,1 15,1 5 3 ENE 1017,2 0,0
17.08.2019 09:00:00 23,4 14,9 6 3 ENE 1017,1 0,0
17.08.2019 08:00:00 21,3 15,2 5 3 ENE 1017,1 0,0
17.08.2019 07:00:00 19,4 15,1 6 4 NE 1016,8 0,0
17.08.2019 06:00:00 18,6 15,1 7 4 NNE 1016,9 0,0
17.08.2019 05:00:00 19,0 14,3 6 4 NNE 1016,5 0,0
17.08.2019 04:00:00 20,1 14,2 3 1 ENE 1016,1 0,0
17.08.2019 03:00:00 20,4 14,3 3 1 E 1016,5 0,0
17.08.2019 02:00:00 21,2 13,9 5 3 NE 1016,8 0,0
17.08.2019 01:00:00 21,6 14,0 4 2 NE 1017,0 0,0
17.08.2019 00:00:00 21,9 14,0 4 2 ENE 1017,1 0,0
16.08.2019 23:00:00 - - - - - - -
16.08.2019 22:00:00 - - - - - - -
16.08.2019 21:00:00 - - - - - - -
16.08.2019 20:00:00 - - - - - - -
16.08.2019 19:00:00 - - - - - - -
16.08.2019 18:00:00 - - - - - - -
16.08.2019 17:00:00 27,9 11,0 10 5 ENE 1015,4 0,0
16.08.2019 16:00:00 27,7 10,4 9 5 NE 1015,8 0,0
16.08.2019 15:00:00 27,6 10,3 11 6 ENE 1016,1 0,0
16.08.2019 14:00:00 27,0 10,2 10 6 ENE 1016,4 0,0
16.08.2019 13:00:00 26,3 10,0 14 8 ENE 1016,6 0,0
16.08.2019 12:00:00 26,0 10,2 9 5 ENE 1017,0 0,0
16.08.2019 11:00:00 25,4 11,6 4 2 ENE 1017,1 0,0
16.08.2019 10:00:00 23,7 12,7 5 3 NE 1017,0 0,0
16.08.2019 09:00:00 21,8 13,7 3 2 NO 1017,0 0,0
16.08.2019 08:00:00 20,4 12,9 4 2 NO 1017,1 0,0
16.08.2019 07:00:00 19,0 13,6 2 1 NNO 1016,9 0,0
16.08.2019 06:00:00 18,2 14,3 6 4 NNE 1016,7 0,0
16.08.2019 05:00:00 18,5 15,6 14 8 NNE 1016,1 0,0
16.08.2019 04:00:00 19,0 14,5 13 7 NE 1016,2 0,0
16.08.2019 03:00:00 19,1 13,5 16 9 ENE 1016,0 0,0
16.08.2019 02:00:00 20,8 11,4 27 15 NE 1015,7 0,0
16.08.2019 01:00:00 23,2 13,4 7 4 ENE 1014,3 0,0
16.08.2019 00:00:00 23,5 13,7 6 3 ENE 1014,1 0,0
15.08.2019 23:00:00 - - - - - - -
15.08.2019 22:00:00 - - - - - - -
15.08.2019 21:00:00 - - - - - - -
15.08.2019 20:00:00 - - - - - - -
15.08.2019 19:00:00 - - - - - - -
15.08.2019 18:00:00 - - - - - - -
15.08.2019 17:00:00 28,7 12,2 9 5 ENE 1013,1 0,0
15.08.2019 16:00:00 28,6 11,2 6 4 NNE 1013,5 0,0
15.08.2019 15:00:00 28,5 11,1 4 2 NO 1014,2 0,0
15.08.2019 14:00:00 27,6 12,0 6 4 NNE 1014,7 0,0

tt = Temperatura
td = dewpoint
ff = velocità del vento
dd = direzione del vento
ppp = reduced air pressure
rr = precipitazioni

Stazioni seguenti

WeatherPro
AMSI
MeteoEarth